Location: Daytona Beach
(29.2106°N, 81.0231°W)
Time: 17:44:21
(UTC-04:00)

PSAT 2 - Pass Details

Date: 26 September 2021
Orbit: 299 x 726 km, 28.5° (Epoch: 15 October)

Event Time Altitude Azimuth Distance (km) Brightness Sun altitude
Rises 22:05:58 0° 269° (W) 3,142 ? -37.3°
Reaches altitude 10° 22:09:05 10° 252° (WSW) 2,216 ? -37.9°
Enters shadow 22:09:44 12° 246° (WSW) 2,058 ? -38.1°
